This is the latest recevied weather packets stored in our database for station/object WS2Z. If no packets are shown the sender has not sent any weather packets the latest 10 day(s).
| Time | Temp. | Humidity | Pressure | Rain* | Wind** | Luminosity | Snow |
|---|---|---|---|---|---|---|---|
| 1777417550 | 27.78° C | 69% | 1016.6 hPa | 0 mm | - | 51 W/m² | - |
| 1777417247 | 27.22° C | 71% | 1016.4 hPa | 0 mm | - | 51 W/m² | - |
| 1777416943 | 27.22° C | 74% | 1016.4 hPa | 0 mm | - | 42 W/m² | - |
| 1777416638 | 27.22° C | 74% | 1016.5 hPa | 0 mm | - | 43 W/m² | - |
| 1777416334 | 27.22° C | 72% | 1016.5 hPa | 0 mm | - | 46 W/m² | - |
| 1777416033 | 27.78° C | 71% | 1016.3 hPa | 0 mm | - | 48 W/m² | - |
| 1777415729 | 27.78° C | 70% | 1016.3 hPa | 0 mm | - | 122 W/m² | - |
| 1777415426 | 27.78° C | 71% | 1016.3 hPa | 0 mm | - | 124 W/m² | - |
| 1777415125 | 28.33° C | 71% | 1016.3 hPa | 0 mm | - | 58 W/m² | - |
| 1777414821 | 28.33° C | 69% | 1016.4 hPa | 0 mm | - | 115 W/m² | - |
| 1777414516 | 28.89° C | 66% | 1016.5 hPa | 0 mm | - | 118 W/m² | - |
| 1777414215 | 28.89° C | 66% | 1016.5 hPa | 0 mm | - | 220 W/m² | - |
| 1777413911 | 28.89° C | 67% | 1016.5 hPa | 0 mm | - | 241 W/m² | - |
| 1777413606 | 28.33° C | 68% | 1016.6 hPa | 0 mm | - | 87 W/m² | - |
| 1777413303 | 28.33° C | 68% | 1016.4 hPa | 0 mm | - | 74 W/m² | - |
| 1777412999 | 28.89° C | 67% | 1016.4 hPa | 0 mm | - | 72 W/m² | - |
| 1777412697 | 28.89° C | 67% | 1016.3 hPa | 0 mm | - | 83 W/m² | - |
| 1777412396 | 28.89° C | 66% | 1016.5 hPa | 0 mm | - | 121 W/m² | - |
| 1777412096 | 28.89° C | 66% | 1016.7 hPa | 0 mm | - | 130 W/m² | - |
| 1777411791 | 28.89° C | 66% | 1016.5 hPa | 0 mm | - | 144 W/m² | - |
| 1777411490 | 28.89° C | 66% | 1016.6 hPa | 0 mm | - | 155 W/m² | - |
| 1777411190 | 28.89° C | 66% | 1016.6 hPa | 0 mm | - | 125 W/m² | - |
| 1777410885 | 28.89° C | 66% | 1016.4 hPa | 0 mm | - | 119 W/m² | - |
| 1777410579 | 29.44° C | 65% | 1016.5 hPa | 0 mm | - | 164 W/m² | - |
| 1777410279 | 29.44° C | 66% | 1016.5 hPa | 0 mm | - | 225 W/m² | - |
* Rain latest hour (hover to see other rain measurements)
** Current wind speed in m/s (hover to see current wind gust speed)